SCP
0 0 0 0 0 0 0 0 0 0 0 0 0 0 0 0 0 0 0 0 0 0 0 0 0 0 0 0 0 0 0 0 0 0 0 0 0 0 0 0 0 0 0 0 0 0 0 0 0 0 0 0 0 0
0 0 0 0 0 0 0 0 0 0 0 0 0 0 0 0 0 0 0 0 0 0 0 0 0 0 0 0 0 0 0 0 0 0 0 0 0 0 0 0 0 0 0 0 0 0 0 0 0 0 0 0 0 0
0 0 0 0 0 0 0 0 0 0 0 0 0 0 0 0 0 0 0 0 0 0 0 0 0 0 0 0 0 0 0 0 0 0 0 0 0 0 0 0 0 0 0 0 0 0 0 0 0 0 0 0 0 0
0 0 0 0 0 0 0 0 0 0 0 0 0 0 0 0 0 0 0 0 0 0 0 0 -0 0 0 0 0 0 0 0 0 0 0 0 0 0 0 0 0 0 0 0 0 0 0 0 0 0 0 0 0 0
0 0 0 0 0 0 0 0 0 0 0 0 0 0 0 0 0 0 0 0 0 0 0 0 0 0 0 0 0 0 0 0 0 0 0 0 0 -0 0 0 0 0 0 0 0 0 0 0 0 0 0 0 0 0
0 0 0 0 0 0 0 0 0 0 0 0 0 0 0 0 0 0 0 0 0 0 0 0 0 0 0 0 0 0 0 0 0 0 0 0 0 0 0 0 0 0 0 0 0 0 0 0 0 0 0 0 0 0
0 0 0 0 0 0 0 0 0 0 0 0 0 0 0 0 0 0 0 0 0 0 0 0 0 0 0 0 0 0 0 0 0 0 0 0 0 0 0 0 0 0 0 0 0 0 0 0 0 0 0 0 0 0
0 0 0 0 0 0 0 0 0 0 0 0 0 0 0 0 0 0 0 0 0 0 0 0 0 0 0 0 0 0 0 0 0 0 0 0 0 0 -0 -0 0 0 0 0 0 0 0 0 0 0 0 0 0 0
0 0 0 0 0 0 0 0 0 0 0 0 0 0 0 0 0 0 0 0 0 0 0 0 0 0 0 0 0 0 0 0 0 0 0 0 0 0 0 0 0 0 0 0 0 0 0 0 0 0 0 0 0 0
0 0 0 0 0 0 0 0 0 0 0 0 0 0 0 0 0 0 0 0 0 0 0 0 0 0 -0 0 0 0 0 0 0 0 0 0 0 0 0 0 0 0 0 0 0 0 0 0 0 0 0 0 0 0
0 0 0 0 0 0 0 0 0 0 0 0 0 0 0 0 0 0 0 0 0 0 0 0 0 0 -0 0 0 0 0 0 0 0 0 0 0 0 0 0 0 0 0 0 0 0 0 0 0 0 0 0 0 0
0 0 0 0 0 0 0 0 0 0 0 0 0 0 0 0 0 0 0 0 0 0 0 0 0 0 0 -0 0 0 0 -0 -0 0 0 0 0 0 0 0 0 0 0 0 0 0 0 0 0 0 0 0 0 0
0 0 0 0 0 0 0 0 0 0 0 0 0 0 0 0 0 0 0 0 0 0 0 0 0 0 0 0 0 0 0 -0 -0 -0 0 0 0 0 0 0 0 0 0 0 0 0 0 0 0 0 0 0 0 0
0 0 0 0 0 0 0 0 0 0 0 0 0 0 0 0 0 0 0 0 0 0 0 0 0 0 0 -0 -0 0 0 -0 -0 -0 0 -0 -0 -0 0 0 0 0 0 -0 -0 0 0 0 0 0 0 0 0 0
0 0 0 0 0 0 0 0 0 0 0 0 0 0 0 0 0 0 0 0 -0 0 0 0 0 0 0 0 0 -0 0 -0 0 0 -0 -0 -0 -0 0 0 0 0 0 -0 -0 0 0 0 0 0 0 0 0 0
0 0 0 0 0 0 0 0 0 0 0 0 0 0 0 -0 0 0 0 0 -0 -0 0 0 0 0 0 0 0 0 0 0 0 -0 0 -0 -0 -0 0 0 0 0 0 0 0 0 0 0 0 0 0 0 0 0
0 0 0 0 0 0 0 0 0 0 0 0 0 0 -0 -0 0 0 0 0 -0 0 -0 0 0 0 0 0 0 0 0 0 0 0 0 0 -0 -0 -0 -0 -0 0 0 0 0 0 0 0 0 0 0 0 0 0
0 0 0 0 0 0 0 0 0 0 0 0 0 0 0 -0 -0 -0 0 0 -0 0 0 0 0 0 0 0 0 0 0 0 0 0 0 0 0 0 0 0 -0 0 0 0 0 0 0 0 0 0 0 0 0 0
0 0 0 0 0 0 0 0 0 0 -0 0 0 0 0 0 0 0 0 0 0 -0 0 0 0 -0 0 0 0 0 0 0 0 0 0 0 0 0 0 0 0 0 -0 -0 0 0 0 0 0 0 0 0 0 0
0 0 0 0 0 0 0 0 0 0 0 0 0 0 0 0 0 0 0 0 -0 0 0 0 0 -0 -0 0 0 0 0 0 0 0 0 0 0 0 -0 -0 0 0 0 0 0 0 -0 -0 -0 -0 0 0 0 0
0 0 0 0 0 0 0 0 0 0 0 0 0 0 0 0 0 0 0 0 0 0 0 -0 -0 0 -0 -0 -0 -0 -0 0 0 0 0 0 0 0 0 0 -0 0 -0 0 0 0 0 0 -0 -0 -0 -0 -0 -0
0 0 0 0 0 0 0 0 0 0 0 0 0 0 0 0 0 0 0 0 0 0 0 0 0 0 0 0 0 -0 0 0 -0 -0 -0 0 -0 -0 -0 -0 -0 -0 -0 0 0 0 0 0 0 0 0 -0 -0 0
0 0 0 0 0 0 0 0 0 0 0 0 0 0 -0 -0 0 0 0 0 0 0 0 0 0 0 0 0 0 0 0 0 0 0 0 0 0 0 0 0 0 0 0 0 0 0 0 0 0 0 0 0 0 0
0 0 0 0 0 0 0 0 0 0 0 0 0 0 0 -0 0 0 0 0 0 0 0 0 0 0 0 0 0 0 0 0 0 0 -0 0 0 -0 -0 -0 0 0 0 0 0 0 0 0 0 0 0 0 0 0
0 0 0 0 0 0 0 0 0 0 -0 0 0 0 0 0 0 0 0 0 0 0 0 0 0 0 0 0 0 0 0 0 0 0 0 -0 -0 0 0 0 0 0 0 0 0 0 -0 0 0 0 0 0 0 0
0 -0 0 0 0 0 0 0 0 0 0 0 0 0 -0 0 0 0 0 0 0 -0 0 0 0 0 0 0 0 0 0 0 0 0 0 0 -0 0 0 0 0 0 0 -0 -0 -0 -0 -0 0 0 0 0 0 0
0 0 0 0 0 0 0 0 0 0 0 0 -0 0 0 0 0 0 0 -0 -0 -0 -0 0 -0 0 0 0 0 0 0 0 -0 0 0 0 0 0 0 -0 0 -0 -0 -0 -0 -0 -0 -0 -0 0 0 0 0 0
0 0 0 0 0 0 0 0 0 0 0 0 0 0 0 0 0 -0 0 0 0 0 0 0 -0 0 0 0 0 0 0 0 0 0 0 0 -0 0 0 -0 0 -0 -0 -0 -0 -0 0 0 -0 -0 0 0 0 -0
0 0 0 0 0 0 0 0 0 0 0 0 0 0 0 0 0 0 0 -0 -0 -0 0 0 0 0 0 0 0 0 0 0 0 -0 0 0 0 0 0 -0 -0 -0 0 0 -0 0 0 0 0 0 0 0 0 0
0 0 0 0 0 0 0 0 0 0 0 0 0 0 0 0 0 0 0 -0 0 -0 0 0 0 0 0 0 0 0 0 0 0 0 0 -0 0 -0 -0 -0 -0 0 0 0 0 0 0 0 0 0 0 0 0 0
0 0 0 0 0 0 0 0 0 0 0 0 -0 0 0 0 0 -0 0 0 0 0 0 0 0 0 0 0 0 0 0 0 0 -0 -0 -0 -0 0 0 0 0 0 0 0 0 0 0 0 0 0 0 0 0 0
0 0 0 0 0 0 0 -0 -0 -0 -0 -0 -0 0 0 0 0 0 0 0 0 0 0 0 0 0 0 0 0 0 0 -0 0 0 -0 -0 -0 0 0 0 0 -0 -0 0 0 0 0 0 0 0 0 0 0 0
0 0 0 0 0 -0 0 -0 0 0 0 -0 0 0 0 0 0 0 0 -0 -0 0 0 0 0 0 0 0 0 -0 -0 -0 -0 -0 -0 -0 0 0 -0 -0 -0 -0 -0 -0 -0 -0 -0 -0 -0 -0 -0 -0 0 0
Wind_Speed_500mb
25 27 29 27 23 24 25 28 30 29 25 20 22 25 26 29 32 32 26 22 22 21 42 55 49 37 21 9 3 20 21 7 10 6 6 6 6 7 7 3 2 7 11 8 9 8 15 16 7 13 17 4 13 46
25 27 29 28 24 23 23 26 29 33 25 18 21 24 28 33 37 36 29 22 22 32 34 41 60 68 60 61 52 17 9 11 9 5 4 2 4 7 13 4 7 3 3 9 12 11 16 29 10 17 14 16 16 51
27 28 29 28 23 23 23 25 29 32 31 20 22 24 29 32 32 28 30 26 24 34 50 29 15 39 22 29 33 22 15 15 7 15 7 3 6 5 5 6 8 8 6 2 7 2 23 35 9 8 21 20 15 40
28 29 28 27 23 23 23 25 29 31 29 26 26 25 27 28 29 30 31 25 25 20 12 19 23 55 61 53 35 38 41 30 29 23 7 4 3 0 3 6 2 8 12 4 9 9 23 8 42 47 16 6 27 26
28 27 26 26 24 23 23 26 29 31 30 29 28 25 24 26 30 32 35 22 15 16 10 33 72 11 25 14 38 54 50 51 36 8 7 6 5 5 8 2 5 8 8 5 8 4 6 25 48 37 30 17 30 49
28 28 26 27 26 25 25 27 30 32 32 30 29 27 26 30 35 37 7 2 7 12 15 9 23 34 28 35 19 44 49 47 34 13 9 9 20 11 7 7 14 22 16 9 6 13 28 45 37 18 42 17 7 40
29 29 29 29 27 26 26 28 31 33 34 32 30 28 27 30 38 28 12 13 22 34 8 13 13 17 32 21 4 14 34 32 29 22 16 13 12 17 5 11 9 27 23 18 22 35 35 21 28 44 36 17 5 34
22 23 25 28 27 26 27 29 32 34 35 33 31 27 27 31 30 11 11 14 14 15 8 6 8 15 23 14 13 15 10 19 17 18 8 9 10 8 9 24 55 63 60 56 58 57 58 54 50 38 33 16 14 27
25 24 24 26 27 28 27 30 31 35 34 33 26 23 24 1 6 15 33 29 24 15 6 6 5 7 22 12 10 7 6 4 6 5 7 11 6 11 15 28 53 55 58 62 57 51 48 49 52 37 21 12 24 46
30 30 27 28 30 28 27 28 31 33 28 20 14 8 4 5 22 37 7 3 5 8 9 7 8 7 17 9 8 8 6 4 2 8 7 6 10 65 68 65 61 46 46 55 41 32 35 45 56 41 23 11 23 32
32 32 29 29 28 26 26 27 29 29 16 11 6 4 13 27 16 5 5 7 7 6 9 12 20 9 10 5 6 4 4 4 3 7 7 6 7 10 17 36 61 75 70 51 49 49 42 50 59 36 26 9 14 36
31 30 28 25 25 24 23 24 26 21 15 10 16 20 12 4 7 5 4 4 6 4 8 8 12 14 9 8 6 6 5 4 7 6 4 6 7 38 38 37 20 36 56 61 48 48 38 31 33 19 20 20 15 23
29 28 26 25 24 22 20 20 19 21 14 7 5 6 5 4 4 6 4 5 5 11 14 12 6 6 7 9 10 5 6 9 11 5 6 4 25 43 39 39 29 23 30 51 48 33 30 30 35 38 23 19 20 21
27 25 26 23 20 19 18 16 14 9 8 4 3 8 8 7 9 7 6 9 17 18 21 20 9 8 8 7 5 7 6 5 6 5 6 4 42 57 45 33 34 15 39 49 49 38 39 38 30 26 34 30 31 30
22 20 20 16 17 16 15 12 7 6 7 7 6 8 10 17 17 20 18 14 27 23 17 7 9 6 3 5 3 4 6 7 5 3 6 34 49 39 28 36 23 6 36 44 45 42 32 34 34 37 37 40 29 20
20 18 14 14 12 10 10 8 8 9 7 8 12 8 16 13 13 21 28 30 36 20 6 9 3 5 7 5 4 9 6 7 6 5 31 37 35 29 34 32 31 5 16 28 39 36 35 30 29 27 26 33 24 21
20 13 15 11 9 7 8 9 6 10 9 9 12 18 30 34 28 25 30 33 36 16 5 5 6 4 4 6 6 6 3 5 23 36 34 27 15 27 35 34 42 27 20 23 21 18 20 19 27 27 33 35 35 34
21 20 19 12 9 7 12 11 8 9 11 17 12 21 19 31 39 40 35 32 26 13 16 5 8 6 5 6 4 7 8 11 17 22 11 8 9 6 20 24 26 38 41 41 39 34 29 35 36 23 20 31 32 31
23 19 21 15 11 9 6 9 11 9 17 17 26 35 30 36 37 32 35 32 29 25 21 9 5 6 6 7 10 13 15 8 11 16 15 32 41 34 22 26 30 39 45 44 37 32 25 19 20 28 25 27 31 36
29 21 23 14 16 7 6 7 10 11 10 9 20 26 25 31 41 37 33 32 31 18 9 6 8 5 6 31 37 32 17 18 17 17 22 29 37 44 38 39 39 33 32 37 39 33 35 33 27 23 18 13 10 12
28 20 14 18 14 14 9 7 11 12 14 13 22 26 18 29 33 30 31 26 15 10 7 12 21 34 38 45 40 12 6 12 26 26 23 23 30 31 34 38 26 21 24 28 26 25 20 19 21 19 22 21 23 18
20 17 11 14 9 7 12 15 12 10 11 17 18 9 13 10 11 8 9 13 10 17 27 32 35 36 28 20 9 2 3 11 15 21 19 17 18 21 26 30 26 21 16 15 15 12 14 14 13 14 15 17 18 13
24 19 7 11 9 9 10 13 10 8 5 7 7 6 4 8 8 15 6 9 12 17 24 20 13 16 14 10 11 11 14 19 18 18 12 12 13 13 13 16 14 15 19 23 20 15 12 8 4 7 17 25 28 23
16 11 5 7 16 8 8 9 12 8 7 5 5 6 4 8 14 5 5 4 2 3 8 12 15 17 17 15 12 10 12 14 18 17 14 13 11 9 6 5 10 11 10 7 3 6 11 15 18 19 21 22 25 28
7 9 7 9 9 6 6 6 7 4 7 7 5 5 4 8 4 4 3 5 4 8 9 11 12 14 17 17 15 14 15 16 15 9 9 12 13 8 6 15 11 5 3 9 15 18 19 19 17 18 19 20 21 22
6 10 13 8 7 8 7 4 7 6 6 6 6 1 3 3 4 7 3 3 9 12 9 16 23 22 17 15 20 18 12 11 7 3 8 7 4 11 21 20 9 2 9 14 13 14 15 17 13 17 19 16 14 15
6 9 14 15 10 10 7 10 14 7 7 4 1 1 3 3 5 7 6 11 13 16 19 16 16 18 23 21 15 15 12 9 9 7 4 12 15 15 13 10 6 9 16 13 10 12 11 7 8 10 5 4 5 6
12 9 9 3 11 16 6 5 6 4 4 7 6 5 4 4 4 8 26 27 20 22 17 16 13 9 17 9 7 9 11 10 11 14 8 18 23 20 16 14 13 12 16 14 15 15 14 11 1 2 3 6 6 6
11 12 7 12 11 10 12 13 9 8 5 3 3 4 7 11 37 43 39 31 29 18 14 9 7 9 7 4 12 16 12 13 9 20 16 18 19 14 11 6 6 11 14 16 16 22 22 19 16 11 9 10 12 12
12 19 9 8 7 8 12 17 18 24 35 36 28 36 42 46 40 34 16 8 7 3 10 13 8 10 10 11 12 11 10 14 12 15 25 25 17 11 13 12 11 10 9 10 16 23 27 27 29 31 26 21 19 21
8 5 10 11 9 24 33 33 33 35 38 43 36 32 43 43 33 8 1 4 9 14 14 7 4 9 14 18 18 14 13 14 21 27 25 24 24 21 20 18 14 12 13 13 14 16 18 20 23 26 30 33 30 27
10 16 9 5 11 18 14 15 19 13 12 11 16 18 14 9 7 4 7 11 13 9 10 13 9 11 15 22 23 26 32 34 35 33 32 33 34 32 35 37 37 39 38 33 26 23 25 27 27 26 25 26 25 26
20 21 21 15 8 2 2 7 6 8 7 6 7 10 10 7 6 6 4 10 9 12 19 17 11 16 24 21 23 30 34 38 36 32 38 41 46 50 48 51 53 53 53 51 53 54 53 53 53 52 50 47 45 42
Wind_Direction_500mb
320 322 328 326 324 326 330 338 341 340 337 339 340 339 338 336 332 328 323 300 272 269 277 278 274 272 252 239 256 338 334 340 330 60 137 166 273 293 298 274 21 143 137 177 113 138 246 208 235 164 194 256 234 194
310 314 321 321 318 318 324 333 334 335 331 330 333 334 336 333 326 320 321 320 287 275 261 282 278 274 257 270 269 243 254 332 275 287 11 96 170 314 338 259 26 52 226 160 175 209 303 310 277 158 176 149 188 199
306 308 314 316 310 310 322 329 330 330 336 323 323 326 333 339 339 332 325 327 308 280 291 283 288 304 280 268 262 216 228 228 232 21 327 295 233 138 293 321 357 327 345 59 352 243 329 318 17 9 319 175 211 208
297 301 308 308 302 305 315 323 327 325 315 317 315 319 328 337 336 326 318 316 295 288 284 292 301 297 292 267 230 253 247 248 269 306 310 281 269 67 240 244 260 253 327 15 289 320 341 22 2 3 332 238 156 171
290 300 303 301 297 298 305 315 322 324 318 307 309 309 318 325 331 327 314 311 273 266 282 293 307 286 317 306 236 241 240 245 250 224 194 230 230 134 267 286 261 228 217 156 238 209 239 294 327 344 358 9 184 171
284 290 295 297 292 295 304 310 316 320 317 310 304 299 308 315 324 337 328 331 158 353 315 309 305 305 345 338 232 221 224 227 217 206 205 224 271 198 202 229 249 226 221 231 262 296 309 320 322 329 335 319 203 204
282 283 287 292 293 295 303 308 312 317 318 318 308 295 299 308 312 315 274 279 278 307 287 294 292 300 339 337 321 207 221 213 214 220 214 216 220 200 211 231 222 216 218 226 276 305 298 300 322 325 327 307 226 205
288 283 290 296 295 296 299 304 310 312 316 318 310 301 295 304 301 316 337 296 283 261 244 278 278 305 354 339 356 14 152 201 218 232 174 189 219 210 256 238 245 242 240 254 268 271 272 281 287 308 310 290 241 214
286 293 295 300 301 297 299 303 308 312 318 317 317 305 303 328 336 322 315 292 280 230 263 247 285 286 339 335 321 336 45 239 238 210 219 169 210 222 231 221 232 236 230 239 247 258 263 263 269 289 295 264 210 198
270 278 285 295 300 298 301 302 308 315 322 322 325 328 328 354 315 316 298 245 217 215 233 255 268 276 315 316 302 337 298 235 261 245 167 188 250 248 253 254 253 249 243 241 229 215 231 242 245 259 251 242 186 181
267 275 278 286 288 291 295 302 310 318 320 325 307 292 287 317 307 254 266 220 198 243 224 244 236 245 265 224 271 277 301 285 252 266 171 245 268 250 297 284 256 252 241 239 237 239 246 251 249 250 236 245 204 196
267 267 274 285 285 285 291 300 307 311 305 285 298 300 317 285 263 248 240 219 213 249 250 233 249 229 259 249 264 274 252 258 259 136 235 251 255 323 333 344 329 259 242 224 238 232 245 221 223 221 220 219 232 206
260 263 274 284 282 280 286 294 301 306 302 281 249 270 225 227 275 231 248 214 232 201 228 223 250 230 238 240 253 241 243 244 328 225 235 253 315 335 337 334 322 273 229 215 223 213 226 246 263 252 240 218 258 254
260 270 278 276 276 273 280 283 295 291 287 244 241 273 209 200 242 227 229 252 289 226 253 240 230 224 221 214 227 248 224 237 237 249 255 290 343 327 328 340 330 311 195 204 205 208 238 263 255 262 259 269 280 272
255 266 271 277 263 265 266 268 244 238 247 254 232 245 233 242 269 290 278 288 303 290 230 218 217 231 229 266 272 316 275 259 292 311 270 329 331 339 343 346 358 174 194 202 209 214 228 249 251 258 253 259 262 251
253 261 265 241 248 240 245 233 211 237 245 236 236 269 273 286 303 327 335 338 350 321 281 241 258 225 218 152 266 217 239 230 273 310 320 334 349 353 355 22 22 67 163 194 211 218 225 234 248 238 175 166 177 189
237 227 213 207 201 212 215 204 215 235 241 236 243 248 268 282 272 292 314 321 336 318 287 276 272 46 180 227 227 216 270 290 298 322 2 47 8 7 41 39 39 75 119 120 143 175 187 198 187 169 173 172 181 201
224 213 198 185 188 213 216 217 245 247 250 248 247 261 260 270 278 284 292 310 327 316 318 283 315 328 308 307 347 337 309 334 2 30 47 18 13 94 67 58 52 75 89 102 102 97 109 142 147 137 194 184 192 198
208 200 195 196 203 195 222 226 228 260 250 264 264 273 277 281 285 278 281 288 299 308 294 266 236 229 247 253 274 292 290 324 355 353 3 33 35 66 65 66 81 87 96 97 109 126 135 142 151 184 175 181 201 204
195 192 195 198 202 226 251 234 223 260 263 273 273 273 272 270 283 280 273 271 283 299 243 228 220 260 289 327 327 324 345 345 2 20 24 51 27 41 55 56 60 67 79 81 87 105 98 109 109 102 126 122 142 158
190 191 186 198 209 232 265 239 240 245 272 262 277 286 275 273 274 269 262 251 228 217 247 260 289 303 312 310 317 296 295 5 360 354 354 355 23 31 43 46 51 54 67 74 80 84 98 124 127 121 114 120 129 126
176 178 202 197 223 244 258 234 240 278 261 266 287 246 267 273 268 250 212 181 220 236 245 270 291 302 313 337 29 73 328 328 321 328 326 325 347 9 22 28 37 50 47 60 70 89 105 128 146 168 177 182 177 175
178 184 194 204 227 240 258 230 236 240 234 258 277 267 277 290 290 332 240 231 234 244 255 263 275 296 306 314 322 314 307 306 300 304 301 322 332 331 337 12 43 99 111 108 111 114 117 132 153 208 210 211 206 203
151 182 226 227 204 258 255 236 221 247 254 254 244 267 208 258 306 260 257 295 216 242 227 244 266 282 286 284 300 320 328 317 307 292 302 305 316 341 359 83 122 123 108 106 68 342 319 300 286 271 243 228 226 231
190 216 204 251 231 237 253 256 222 232 247 235 233 277 320 323 288 277 257 269 275 295 294 290 294 300 304 303 305 303 314 316 321 302 298 277 276 275 172 163 164 152 47 332 326 323 315 299 279 251 238 243 254 255
245 211 198 225 225 199 237 283 19 316 302 266 206 327 282 250 259 266 266 298 312 314 306 325 318 306 299 288 292 299 293 268 254 282 8 0 199 174 180 182 171 32 356 351 350 343 339 341 322 252 237 246 251 252
253 256 230 237 262 288 288 275 253 224 245 297 111 209 88 323 291 270 294 323 311 334 319 302 299 297 298 294 283 284 279 220 196 163 101 69 110 120 151 157 126 81 40 16 355 360 2 8 54 77 78 205 208 243
242 259 220 273 219 239 225 249 262 256 74 272 260 242 240 216 239 349 325 316 317 313 303 294 292 313 306 255 227 208 183 186 192 175 143 124 129 116 111 103 87 60 30 34 29 13 12 26 82 198 74 106 152 158
240 238 262 273 269 234 221 207 235 250 247 290 280 284 285 295 302 311 322 312 313 299 295 223 304 298 34 106 161 156 159 159 157 193 184 165 140 132 111 90 76 67 47 55 53 50 52 52 55 69 102 119 117 108
243 226 224 245 220 227 227 234 270 281 299 303 297 298 290 300 323 330 328 302 307 39 324 311 349 356 159 123 140 159 173 178 175 190 173 156 143 114 109 102 88 65 77 88 72 69 62 66 74 81 89 104 110 108
248 190 222 238 255 268 270 278 286 290 289 292 295 289 293 306 322 23 332 196 207 297 308 347 131 63 81 102 90 99 122 124 136 130 131 120 113 107 93 87 87 96 115 116 105 100 97 91 96 94 93 99 97 94
224 210 213 245 267 290 314 316 307 267 265 267 285 306 313 305 309 343 342 336 145 133 97 79 53 56 100 94 86 101 107 115 121 112 108 109 107 99 100 93 88 92 94 96 98 97 94 98 103 100 98 94 90 88
215 231 251 276 269 281 19 325 304 302 281 263 263 247 252 282 287 352 102 61 81 120 105 72 85 108 111 97 90 99 103 109 113 113 115 112 113 111 106 105 105 102 100 96 92 92 93 93 95 95 93 93 92 89
Wind_Speed_850mb
25 27 29 27 23 24 25 28 30 29 25 20 22 25 26 29 32 32 26 22 22 21 42 55 49 37 21 9 3 20 21 7 10 6 6 6 6 7 7 3 2 7 11 8 9 8 15 16 7 13 17 4 13 46
25 27 29 28 24 23 23 26 29 33 25 18 21 24 28 33 37 36 29 22 22 32 34 41 60 68 60 61 52 17 9 11 9 5 4 2 4 7 13 4 7 3 3 9 12 11 16 29 10 17 14 16 16 51
27 28 29 28 23 23 23 25 29 32 31 20 22 24 29 32 32 28 30 26 24 34 50 29 15 39 22 29 33 22 15 15 7 15 7 3 6 5 5 6 8 8 6 2 7 2 23 35 9 8 21 20 15 40
28 29 28 27 23 23 23 25 29 31 29 26 26 25 27 28 29 30 31 25 25 20 12 19 23 55 61 53 35 38 41 30 29 23 7 4 3 0 3 6 2 8 12 4 9 9 23 8 42 47 16 6 27 26
28 27 26 26 24 23 23 26 29 31 30 29 28 25 24 26 30 32 35 22 15 16 10 33 72 11 25 14 38 54 50 51 36 8 7 6 5 5 8 2 5 8 8 5 8 4 6 25 48 37 30 17 30 49
28 28 26 27 26 25 25 27 30 32 32 30 29 27 26 30 35 37 7 2 7 12 15 9 23 34 28 35 19 44 49 47 34 13 9 9 20 11 7 7 14 22 16 9 6 13 28 45 37 18 42 17 7 40
29 29 29 29 27 26 26 28 31 33 34 32 30 28 27 30 38 28 12 13 22 34 8 13 13 17 32 21 4 14 34 32 29 22 16 13 12 17 5 11 9 27 23 18 22 35 35 21 28 44 36 17 5 34
22 23 25 28 27 26 27 29 32 34 35 33 31 27 27 31 30 11 11 14 14 15 8 6 8 15 23 14 13 15 10 19 17 18 8 9 10 8 9 24 55 63 60 56 58 57 58 54 50 38 33 16 14 27
25 24 24 26 27 28 27 30 31 35 34 33 26 23 24 1 6 15 33 29 24 15 6 6 5 7 22 12 10 7 6 4 6 5 7 11 6 11 15 28 53 55 58 62 57 51 48 49 52 37 21 12 24 46
30 30 27 28 30 28 27 28 31 33 28 20 14 8 4 5 22 37 7 3 5 8 9 7 8 7 17 9 8 8 6 4 2 8 7 6 10 65 68 65 61 46 46 55 41 32 35 45 56 41 23 11 23 32
32 32 29 29 28 26 26 27 29 29 16 11 6 4 13 27 16 5 5 7 7 6 9 12 20 9 10 5 6 4 4 4 3 7 7 6 7 10 17 36 61 75 70 51 49 49 42 50 59 36 26 9 14 36
31 30 28 25 25 24 23 24 26 21 15 10 16 20 12 4 7 5 4 4 6 4 8 8 12 14 9 8 6 6 5 4 7 6 4 6 7 38 38 37 20 36 56 61 48 48 38 31 33 19 20 20 15 23
29 28 26 25 24 22 20 20 19 21 14 7 5 6 5 4 4 6 4 5 5 11 14 12 6 6 7 9 10 5 6 9 11 5 6 4 25 43 39 39 29 23 30 51 48 33 30 30 35 38 23 19 20 21
27 25 26 23 20 19 18 16 14 9 8 4 3 8 8 7 9 7 6 9 17 18 21 20 9 8 8 7 5 7 6 5 6 5 6 4 42 57 45 33 34 15 39 49 49 38 39 38 30 26 34 30 31 30
22 20 20 16 17 16 15 12 7 6 7 7 6 8 10 17 17 20 18 14 27 23 17 7 9 6 3 5 3 4 6 7 5 3 6 34 49 39 28 36 23 6 36 44 45 42 32 34 34 37 37 40 29 20
20 18 14 14 12 10 10 8 8 9 7 8 12 8 16 13 13 21 28 30 36 20 6 9 3 5 7 5 4 9 6 7 6 5 31 37 35 29 34 32 31 5 16 28 39 36 35 30 29 27 26 33 24 21
20 13 15 11 9 7 8 9 6 10 9 9 12 18 30 34 28 25 30 33 36 16 5 5 6 4 4 6 6 6 3 5 23 36 34 27 15 27 35 34 42 27 20 23 21 18 20 19 27 27 33 35 35 34
21 20 19 12 9 7 12 11 8 9 11 17 12 21 19 31 39 40 35 32 26 13 16 5 8 6 5 6 4 7 8 11 17 22 11 8 9 6 20 24 26 38 41 41 39 34 29 35 36 23 20 31 32 31
23 19 21 15 11 9 6 9 11 9 17 17 26 35 30 36 37 32 35 32 29 25 21 9 5 6 6 7 10 13 15 8 11 16 15 32 41 34 22 26 30 39 45 44 37 32 25 19 20 28 25 27 31 36
29 21 23 14 16 7 6 7 10 11 10 9 20 26 25 31 41 37 33 32 31 18 9 6 8 5 6 31 37 32 17 18 17 17 22 29 37 44 38 39 39 33 32 37 39 33 35 33 27 23 18 13 10 12
28 20 14 18 14 14 9 7 11 12 14 13 22 26 18 29 33 30 31 26 15 10 7 12 21 34 38 45 40 12 6 12 26 26 23 23 30 31 34 38 26 21 24 28 26 25 20 19 21 19 22 21 23 18
20 17 11 14 9 7 12 15 12 10 11 17 18 9 13 10 11 8 9 13 10 17 27 32 35 36 28 20 9 2 3 11 15 21 19 17 18 21 26 30 26 21 16 15 15 12 14 14 13 14 15 17 18 13
24 19 7 11 9 9 10 13 10 8 5 7 7 6 4 8 8 15 6 9 12 17 24 20 13 16 14 10 11 11 14 19 18 18 12 12 13 13 13 16 14 15 19 23 20 15 12 8 4 7 17 25 28 23
16 11 5 7 16 8 8 9 12 8 7 5 5 6 4 8 14 5 5 4 2 3 8 12 15 17 17 15 12 10 12 14 18 17 14 13 11 9 6 5 10 11 10 7 3 6 11 15 18 19 21 22 25 28
7 9 7 9 9 6 6 6 7 4 7 7 5 5 4 8 4 4 3 5 4 8 9 11 12 14 17 17 15 14 15 16 15 9 9 12 13 8 6 15 11 5 3 9 15 18 19 19 17 18 19 20 21 22
6 10 13 8 7 8 7 4 7 6 6 6 6 1 3 3 4 7 3 3 9 12 9 16 23 22 17 15 20 18 12 11 7 3 8 7 4 11 21 20 9 2 9 14 13 14 15 17 13 17 19 16 14 15
6 9 14 15 10 10 7 10 14 7 7 4 1 1 3 3 5 7 6 11 13 16 19 16 16 18 23 21 15 15 12 9 9 7 4 12 15 15 13 10 6 9 16 13 10 12 11 7 8 10 5 4 5 6
12 9 9 3 11 16 6 5 6 4 4 7 6 5 4 4 4 8 26 27 20 22 17 16 13 9 17 9 7 9 11 10 11 14 8 18 23 20 16 14 13 12 16 14 15 15 14 11 1 2 3 6 6 6
11 12 7 12 11 10 12 13 9 8 5 3 3 4 7 11 37 43 39 31 29 18 14 9 7 9 7 4 12 16 12 13 9 20 16 18 19 14 11 6 6 11 14 16 16 22 22 19 16 11 9 10 12 12
12 19 9 8 7 8 12 17 18 24 35 36 28 36 42 46 40 34 16 8 7 3 10 13 8 10 10 11 12 11 10 14 12 15 25 25 17 11 13 12 11 10 9 10 16 23 27 27 29 31 26 21 19 21
8 5 10 11 9 24 33 33 33 35 38 43 36 32 43 43 33 8 1 4 9 14 14 7 4 9 14 18 18 14 13 14 21 27 25 24 24 21 20 18 14 12 13 13 14 16 18 20 23 26 30 33 30 27
10 16 9 5 11 18 14 15 19 13 12 11 16 18 14 9 7 4 7 11 13 9 10 13 9 11 15 22 23 26 32 34 35 33 32 33 34 32 35 37 37 39 38 33 26 23 25 27 27 26 25 26 25 26
20 21 21 15 8 2 2 7 6 8 7 6 7 10 10 7 6 6 4 10 9 12 19 17 11 16 24 21 23 30 34 38 36 32 38 41 46 50 48 51 53 53 53 51 53 54 53 53 53 52 50 47 45 42
Wind_Direction_850mb
320 322 328 326 324 326 330 338 341 340 337 339 340 339 338 336 332 328 323 300 272 269 277 278 274 272 252 239 256 338 334 340 330 60 137 166 273 293 298 274 21 143 137 177 113 138 246 208 235 164 194 256 234 194
310 314 321 321 318 318 324 333 334 335 331 330 333 334 336 333 326 320 321 320 287 275 261 282 278 274 257 270 269 243 254 332 275 287 11 96 170 314 338 259 26 52 226 160 175 209 303 310 277 158 176 149 188 199
306 308 314 316 310 310 322 329 330 330 336 323 323 326 333 339 339 332 325 327 308 280 291 283 288 304 280 268 262 216 228 228 232 21 327 295 233 138 293 321 357 327 345 59 352 243 329 318 17 9 319 175 211 208
297 301 308 308 302 305 315 323 327 325 315 317 315 319 328 337 336 326 318 316 295 288 284 292 301 297 292 267 230 253 247 248 269 306 310 281 269 67 240 244 260 253 327 15 289 320 341 22 2 3 332 238 156 171
290 300 303 301 297 298 305 315 322 324 318 307 309 309 318 325 331 327 314 311 273 266 282 293 307 286 317 306 236 241 240 245 250 224 194 230 230 134 267 286 261 228 217 156 238 209 239 294 327 344 358 9 184 171
284 290 295 297 292 295 304 310 316 320 317 310 304 299 308 315 324 337 328 331 158 353 315 309 305 305 345 338 232 221 224 227 217 206 205 224 271 198 202 229 249 226 221 231 262 296 309 320 322 329 335 319 203 204
282 283 287 292 293 295 303 308 312 317 318 318 308 295 299 308 312 315 274 279 278 307 287 294 292 300 339 337 321 207 221 213 214 220 214 216 220 200 211 231 222 216 218 226 276 305 298 300 322 325 327 307 226 205
288 283 290 296 295 296 299 304 310 312 316 318 310 301 295 304 301 316 337 296 283 261 244 278 278 305 354 339 356 14 152 201 218 232 174 189 219 210 256 238 245 242 240 254 268 271 272 281 287 308 310 290 241 214
286 293 295 300 301 297 299 303 308 312 318 317 317 305 303 328 336 322 315 292 280 230 263 247 285 286 339 335 321 336 45 239 238 210 219 169 210 222 231 221 232 236 230 239 247 258 263 263 269 289 295 264 210 198
270 278 285 295 300 298 301 302 308 315 322 322 325 328 328 354 315 316 298 245 217 215 233 255 268 276 315 316 302 337 298 235 261 245 167 188 250 248 253 254 253 249 243 241 229 215 231 242 245 259 251 242 186 181
267 275 278 286 288 291 295 302 310 318 320 325 307 292 287 317 307 254 266 220 198 243 224 244 236 245 265 224 271 277 301 285 252 266 171 245 268 250 297 284 256 252 241 239 237 239 246 251 249 250 236 245 204 196
267 267 274 285 285 285 291 300 307 311 305 285 298 300 317 285 263 248 240 219 213 249 250 233 249 229 259 249 264 274 252 258 259 136 235 251 255 323 333 344 329 259 242 224 238 232 245 221 223 221 220 219 232 206
260 263 274 284 282 280 286 294 301 306 302 281 249 270 225 227 275 231 248 214 232 201 228 223 250 230 238 240 253 241 243 244 328 225 235 253 315 335 337 334 322 273 229 215 223 213 226 246 263 252 240 218 258 254
260 270 278 276 276 273 280 283 295 291 287 244 241 273 209 200 242 227 229 252 289 226 253 240 230 224 221 214 227 248 224 237 237 249 255 290 343 327 328 340 330 311 195 204 205 208 238 263 255 262 259 269 280 272
255 266 271 277 263 265 266 268 244 238 247 254 232 245 233 242 269 290 278 288 303 290 230 218 217 231 229 266 272 316 275 259 292 311 270 329 331 339 343 346 358 174 194 202 209 214 228 249 251 258 253 259 262 251
253 261 265 241 248 240 245 233 211 237 245 236 236 269 273 286 303 327 335 338 350 321 281 241 258 225 218 152 266 217 239 230 273 310 320 334 349 353 355 22 22 67 163 194 211 218 225 234 248 238 175 166 177 189
237 227 213 207 201 212 215 204 215 235 241 236 243 248 268 282 272 292 314 321 336 318 287 276 272 46 180 227 227 216 270 290 298 322 2 47 8 7 41 39 39 75 119 120 143 175 187 198 187 169 173 172 181 201
224 213 198 185 188 213 216 217 245 247 250 248 247 261 260 270 278 284 292 310 327 316 318 283 315 328 308 307 347 337 309 334 2 30 47 18 13 94 67 58 52 75 89 102 102 97 109 142 147 137 194 184 192 198
208 200 195 196 203 195 222 226 228 260 250 264 264 273 277 281 285 278 281 288 299 308 294 266 236 229 247 253 274 292 290 324 355 353 3 33 35 66 65 66 81 87 96 97 109 126 135 142 151 184 175 181 201 204
195 192 195 198 202 226 251 234 223 260 263 273 273 273 272 270 283 280 273 271 283 299 243 228 220 260 289 327 327 324 345 345 2 20 24 51 27 41 55 56 60 67 79 81 87 105 98 109 109 102 126 122 142 158
190 191 186 198 209 232 265 239 240 245 272 262 277 286 275 273 274 269 262 251 228 217 247 260 289 303 312 310 317 296 295 5 360 354 354 355 23 31 43 46 51 54 67 74 80 84 98 124 127 121 114 120 129 126
176 178 202 197 223 244 258 234 240 278 261 266 287 246 267 273 268 250 212 181 220 236 245 270 291 302 313 337 29 73 328 328 321 328 326 325 347 9 22 28 37 50 47 60 70 89 105 128 146 168 177 182 177 175
178 184 194 204 227 240 258 230 236 240 234 258 277 267 277 290 290 332 240 231 234 244 255 263 275 296 306 314 322 314 307 306 300 304 301 322 332 331 337 12 43 99 111 108 111 114 117 132 153 208 210 211 206 203
151 182 226 227 204 258 255 236 221 247 254 254 244 267 208 258 306 260 257 295 216 242 227 244 266 282 286 284 300 320 328 317 307 292 302 305 316 341 359 83 122 123 108 106 68 342 319 300 286 271 243 228 226 231
190 216 204 251 231 237 253 256 222 232 247 235 233 277 320 323 288 277 257 269 275 295 294 290 294 300 304 303 305 303 314 316 321 302 298 277 276 275 172 163 164 152 47 332 326 323 315 299 279 251 238 243 254 255
245 211 198 225 225 199 237 283 19 316 302 266 206 327 282 250 259 266 266 298 312 314 306 325 318 306 299 288 292 299 293 268 254 282 8 0 199 174 180 182 171 32 356 351 350 343 339 341 322 252 237 246 251 252
253 256 230 237 262 288 288 275 253 224 245 297 111 209 88 323 291 270 294 323 311 334 319 302 299 297 298 294 283 284 279 220 196 163 101 69 110 120 151 157 126 81 40 16 355 360 2 8 54 77 78 205 208 243
242 259 220 273 219 239 225 249 262 256 74 272 260 242 240 216 239 349 325 316 317 313 303 294 292 313 306 255 227 208 183 186 192 175 143 124 129 116 111 103 87 60 30 34 29 13 12 26 82 198 74 106 152 158
240 238 262 273 269 234 221 207 235 250 247 290 280 284 285 295 302 311 322 312 313 299 295 223 304 298 34 106 161 156 159 159 157 193 184 165 140 132 111 90 76 67 47 55 53 50 52 52 55 69 102 119 117 108
243 226 224 245 220 227 227 234 270 281 299 303 297 298 290 300 323 330 328 302 307 39 324 311 349 356 159 123 140 159 173 178 175 190 173 156 143 114 109 102 88 65 77 88 72 69 62 66 74 81 89 104 110 108
248 190 222 238 255 268 270 278 286 290 289 292 295 289 293 306 322 23 332 196 207 297 308 347 131 63 81 102 90 99 122 124 136 130 131 120 113 107 93 87 87 96 115 116 105 100 97 91 96 94 93 99 97 94
224 210 213 245 267 290 314 316 307 267 265 267 285 306 313 305 309 343 342 336 145 133 97 79 53 56 100 94 86 101 107 115 121 112 108 109 107 99 100 93 88 92 94 96 98 97 94 98 103 100 98 94 90 88
215 231 251 276 269 281 19 325 304 302 281 263 263 247 252 282 287 352 102 61 81 120 105 72 85 108 111 97 90 99 103 109 113 113 115 112 113 111 106 105 105 102 100 96 92 92 93 93 95 95 93 93 92 89